This is the latest recevied weather packets stored in our database for station/object DL4SAV. If no packets are shown the sender has not sent any weather packets the latest 10 day(s).
| Time | Temp. | Humidity | Pressure | Rain* | Wind** | Luminosity | Snow |
|---|---|---|---|---|---|---|---|
| 1787412600 | 22.22° C | 50% | 1019.4 hPa | 0 mm | - | - | - |
| 1787412300 | 22.78° C | 51% | 1019.3 hPa | 0 mm | - | - | - |
| 1787411999 | 22.78° C | 51% | 1019.5 hPa | 0 mm | - | - | - |
| 1787411699 | 22.78° C | 52% | 1019.5 hPa | 0 mm | - | - | - |
| 1787411399 | 22.78° C | 53% | 1019.5 hPa | 0 mm | - | - | - |
| 1787411099 | 22.78° C | 55% | 1019.4 hPa | 0 mm | - | - | - |
| 1787410798 | 21.67° C | 57% | 1019.4 hPa | 0 mm | - | - | - |
| 1787410498 | 20.56° C | 57% | 1019.4 hPa | 0 mm | - | - | - |
| 1787410198 | 20.56° C | 56% | 1019.3 hPa | 0 mm | - | - | - |
| 1787409898 | 20.56° C | 56% | 1019.3 hPa | 0 mm | - | - | - |
| 1787409597 | 20° C | 58% | 1019.4 hPa | 0 mm | - | - | - |
| 1787409297 | 19.44° C | 59% | 1019.3 hPa | 0 mm | - | - | - |
| 1787408997 | 19.44° C | 57% | 1019.2 hPa | 0 mm | - | - | - |
| 1787408696 | 19.44° C | 58% | 1019.2 hPa | 0 mm | - | - | - |
| 1787408396 | 19.44° C | 58% | 1019.3 hPa | 0 mm | - | - | - |
| 1787408096 | 18.89° C | 58% | 1019.2 hPa | 0 mm | - | - | - |
| 1787407795 | 19.44° C | 60% | 1019.3 hPa | 0 mm | - | - | - |
| 1787407495 | 18.89° C | 61% | 1019.4 hPa | 0 mm | - | - | - |
| 1787407195 | 18.89° C | 63% | 1019.2 hPa | 0 mm | - | - | - |
| 1787406895 | 18.33° C | 62% | 1019.1 hPa | 0 mm | - | - | - |
| 1787406594 | 18.33° C | 62% | 1019.1 hPa | 0 mm | - | - | - |
| 1787406294 | 18.33° C | 62% | 1019.1 hPa | 0 mm | - | - | - |
| 1787405994 | 17.78° C | 61% | 1019.1 hPa | 0 mm | - | - | - |
| 1787405694 | 17.78° C | 61% | 1019.2 hPa | 0 mm | - | - | - |
| 1787405393 | 17.78° C | 63% | 1019.1 hPa | 0 mm | - | - | - |
* Rain latest hour (hover to see other rain measurements)
** Current wind speed in m/s (hover to see current wind gust speed)